DateTimeUTC,F1_A11,F1_S11,BsB_S11,BsG_S11,BsR_S11,BbsB_S11,BbsG_S11,BbsR_S11,BaB_A11,BaG_A11,BaR_A11,Tu_S11,T_S11,Uu_S11,U_S11,P_S11,T1_A11
2021-03-24T15:00:00Z,00000200,21000000,,,,,,,0000.45,-000.02,0000.10,16.5,24.0,,00.0,0626.0,30.9
2021-03-24T15:01:00Z,00000200,21000000,,,,,,,0000.04,0000.68,0000.21,16.5,24.1,,00.0,0626.0,30.9
2021-03-24T15:02:00Z,00000200,21000000,,,,,,,-000.26,-000.37,-000.06,16.5,24.1,,00.0,0626.0,30.9
2021-03-24T15:03:00Z,00000200,61000000,,,,,,,0000.62,0000.78,0000.29,16.5,24.1,,00.0,0626.0,30.9
2021-03-24T15:04:00Z,00000200,41000000,0001.79,0000.54,0000.50,-000.11,0000.30,0000.22,0000.39,0000.16,0000.15,16.8,24.0,,00.0,0626.9,31.0
2021-03-24T15:05:00Z,00000200,01000000,0002.04,0000.71,0000.77,0000.26,0000.09,0000.35,0000.50,0000.40,0000.37,16.9,24.0,,00.0,0627.0,31.0
2021-03-24T15:06:00Z,00000200,01000000,0001.64,0000.93,0000.49,0000.17,0000.30,0000.22,0000.29,0000.35,0000.27,16.9,24.0,,00.0,0627.0,31.0
2021-03-24T15:07:00Z,00000200,01000000,0000.93,0000.79,0000.74,0000.23,0000.08,0000.19,0000.42,0000.26,0000.33,16.9,24.0,,00.0,0627.1,31.0
2021-03-24T15:08:00Z,00000200,01000000,0001.26,0000.90,0000.49,0000.09,0000.29,-000.14,0000.15,0000.25,0000.12,16.9,24.0,,00.0,0627.1,30.9
2021-03-24T15:09:00Z,00000200,01000000,0001.13,0001.07,0000.63,0000.13,0000.08,0000.26,0000.35,0000.23,-000.04,16.9,23.9,,00.0,0627.1,30.9
2021-03-24T15:10:00Z,00000200,01000000,0001.68,0000.89,0000.73,0000.19,0000.22,0000.17,-000.03,0000.05,0000.41,16.9,23.9,,00.0,0627.1,30.9
2021-03-24T15:11:00Z,00000200,01000000,0001.26,0000.85,0000.35,0000.12,0000.02,0000.35,0000.41,0000.69,0000.21,16.9,23.9,,00.0,0627.1,30.9
2021-03-24T15:12:00Z,00000200,01000000,0001.09,0000.68,0000.54,0000.43,-000.04,0000.37,0000.25,-000.08,0000.04,16.9,23.9,,00.0,0627.1,30.9
2021-03-24T15:13:00Z,00000200,01000000,0000.97,0000.62,0000.66,0000.11,-000.03,0000.14,0000.44,0000.18,0000.32,16.8,23.9,,00.0,0627.1,30.9
2021-03-24T15:14:00Z,00000200,01000000,0000.79,0000.72,0000.37,-000.10,-000.04,0000.08,0000.27,0000.16,0000.18,16.8,23.9,,00.0,0627.1,30.9
2021-03-24T15:15:00Z,00000200,01000000,0001.67,0000.83,0000.43,-000.30,0000.16,0000.24,0000.60,0000.68,0000.40,16.8,23.9,,00.0,0627.1,30.9
2021-03-24T15:16:00Z,00000200,01000000,0001.44,0001.19,0000.80,-000.08,0000.18,0000.29,0000.77,0000.53,0000.41,16.8,23.9,,00.0,0627.1,30.9
2021-03-24T15:17:00Z,00000200,01000000,0001.86,0001.02,0000.60,0000.33,0000.25,0000.22,0000.09,0000.39,0000.28,16.8,23.9,,00.0,0627.1,30.9
2021-03-24T15:18:00Z,00000200,01000000,0001.85,0000.87,0000.81,0000.58,0000.40,0000.19,0000.69,0000.54,0000.67,16.8,23.9,,00.0,0627.1,30.9
2021-03-24T15:19:00Z,00000200,01000000,0001.43,0000.91,0000.63,0000.21,0000.42,0000.01,0000.53,0000.69,0000.49,16.8,23.9,,00.0,0627.1,30.9
2021-03-24T15:20:00Z,00000200,01000000,0000.99,0001.02,0000.62,-000.05,0000.37,0000.32,0002.72,0002.32,0001.58,16.8,23.9,,00.0,0627.1,30.9
2021-03-24T15:21:00Z,00000200,01000000,0001.20,0000.97,0000.53,0000.07,0000.01,0000.30,-000.74,-000.70,-000.59,16.8,23.9,,00.0,0627.1,30.9
2021-03-24T15:22:00Z,00000200,01000000,0000.69,0000.68,0000.44,0000.23,0000.11,0000.00,0000.41,0000.32,0000.43,16.8,23.9,,00.0,0627.1,30.9
2021-03-24T15:23:00Z,00000200,01000000,0001.52,0000.82,0000.64,0000.34,0000.37,0000.23,0000.32,0000.27,0000.55,16.8,23.8,,00.0,0627.1,30.9
2021-03-24T15:24:00Z,00000200,01000000,0001.35,0000.79,0000.58,-000.00,0000.23,0000.23,0000.37,0000.37,-000.06,16.7,23.8,,00.0,0627.1,30.9
2021-03-24T15:25:00Z,00000200,01000000,0001.33,0001.01,0000.73,0000.08,-000.05,0000.20,0000.18,0000.41,0000.44,16.7,23.8,,00.0,0627.1,30.9
2021-03-24T15:26:00Z,00000200,01000000,0001.10,0000.86,0000.50,-000.17,0000.12,0000.15,0000.47,0000.55,0000.06,16.7,23.8,,00.0,0627.1,30.9
2021-03-24T15:27:00Z,00000200,01000000,0001.62,0001.12,0000.77,0000.34,-000.03,0000.30,0000.66,0000.35,0000.45,16.7,23.8,,00.0,0627.0,30.9
2021-03-24T15:28:00Z,00000200,01000000,0001.59,0000.71,0000.46,0000.01,0000.12,0000.17,0000.52,0000.32,-000.05,16.6,23.8,,00.0,0627.0,30.9
2021-03-24T15:29:00Z,00000200,01000000,0001.39,0000.91,0000.45,-000.28,-000.04,0000.26,0000.18,0000.01,0000.19,16.6,23.7,,00.0,0627.1,30.9
2021-03-24T15:30:00Z,00000200,01000000,0001.23,0000.83,0000.62,0000.16,0000.19,0000.39,0000.11,0000.45,0000.66,16.6,23.7,,00.0,0627.1,30.9
2021-03-24T15:31:00Z,00000200,01000000,0001.42,0000.96,0000.60,-000.11,0000.04,0000.33,0000.67,0000.48,0000.08,16.6,23.7,,00.0,0627.1,30.9
2021-03-24T15:32:00Z,00000200,01000000,0001.53,0000.97,0000.25,-000.20,0000.06,-000.07,0000.49,0000.58,0000.34,16.6,23.7,,00.0,0627.1,30.9
2021-03-24T15:33:00Z,00000200,01000000,0001.55,0000.88,0000.55,-000.12,0000.20,0000.36,0000.61,0000.53,0000.43,16.7,23.7,,00.0,0627.2,30.9
2021-03-24T15:34:00Z,00000200,01000000,0001.60,0000.73,0000.16,-000.24,0000.31,0000.22,0000.49,0000.60,0000.41,16.8,23.8,,00.0,0627.2,30.9
2021-03-24T15:35:00Z,00000200,01000000,0001.42,0000.79,0000.48,-000.21,0000.26,0000.10,0000.98,0000.64,0000.89,16.9,23.8,,00.0,0627.2,30.9
2021-03-24T15:36:00Z,00000200,01000000,0001.09,0000.80,0000.51,-000.00,0000.19,0000.28,0000.69,0000.70,0000.77,17.0,23.9,,00.0,0627.2,31.0
2021-03-24T15:37:00Z,00000200,01000000,0001.02,0000.78,0000.55,-000.26,0000.15,0000.14,0000.62,0001.05,-000.00,17.1,23.9,,00.0,0627.2,31.0
2021-03-24T15:38:00Z,00000200,01000000,0001.39,0000.65,0000.46,0000.17,0000.13,0000.22,0000.79,0000.33,0000.99,17.1,24.0,,00.0,0627.2,31.0
2021-03-24T15:39:00Z,00000200,01000000,0001.29,0000.53,0000.26,0000.16,-000.02,0000.22,0000.79,0000.65,-000.00,17.2,24.0,,00.0,0627.2,31.0
2021-03-24T15:40:00Z,00000200,01000000,0001.77,0000.94,0000.49,0000.28,-000.04,0000.19,-000.01,0000.20,0000.40,17.2,24.0,,00.0,0627.2,31.0
2021-03-24T15:41:00Z,00000200,01000000,0001.45,0000.66,0000.48,-000.25,0000.19,0000.37,0000.30,0000.33,-000.13,17.2,24.0,,00.0,0627.2,31.0
2021-03-24T15:42:00Z,00000200,01000000,0001.52,0000.87,0000.58,0000.02,0000.08,0000.25,0000.50,0000.38,0000.56,17.2,24.0,,00.0,0627.2,31.0
2021-03-24T15:43:00Z,00000200,01000000,0001.35,0000.97,0000.76,0000.26,0000.06,0000.18,0000.16,0000.16,-000.01,17.1,24.0,,00.0,0627.2,30.9
2021-03-24T15:44:00Z,00000200,01000000,0001.35,0000.79,0000.40,-000.23,0000.12,0000.41,0000.06,0000.19,-000.07,17.1,24.0,,00.0,0627.3,30.9
2021-03-24T15:45:00Z,00000200,01000000,0001.50,0000.77,0000.60,0000.07,0000.08,0000.15,0000.61,-000.22,0000.27,17.1,24.0,,00.0,0627.3,30.9
2021-03-24T15:46:00Z,00000200,01000000,0001.78,0000.73,0000.73,0000.05,-000.05,0000.36,0000.14,0000.76,0000.47,17.0,23.9,,00.0,0627.3,30.9
2021-03-24T15:47:00Z,00000200,01000000,0001.46,0000.68,0000.52,0000.17,0000.24,0000.14,0000.56,0000.58,0000.57,17.1,23.9,,00.0,0627.3,30.9
2021-03-24T15:48:00Z,00000200,01000000,0001.22,0000.73,0000.58,-000.06,0000.08,0000.42,0000.87,0000.65,0000.36,17.1,24.0,,00.0,0627.3,31.0
2021-03-24T15:49:00Z,00000200,01000000,0002.08,0000.79,0000.65,0000.00,0000.09,0000.20,0001.06,0001.06,0001.05,17.2,24.0,,00.0,0627.3,31.0
2021-03-24T15:50:00Z,00000200,01000000,0000.81,0000.47,0000.41,-000.29,0000.20,0000.30,0000.65,0000.86,0000.41,17.3,24.1,,00.0,0627.2,31.0
2021-03-24T15:51:00Z,00000200,01000000,0001.49,0000.83,0000.57,0000.33,0000.13,0000.01,0000.74,0000.56,0000.68,17.3,24.1,,00.0,0627.2,31.0
2021-03-24T15:52:00Z,00000200,01000000,0001.64,0001.28,0000.77,-000.01,0000.05,-000.01,0000.68,0000.84,0000.46,17.4,24.1,,00.0,0627.2,31.0
2021-03-24T15:53:00Z,00000200,01000000,0001.51,0000.65,0000.41,0000.34,0000.33,0000.26,0000.59,0000.13,0000.01,17.4,24.2,,00.0,0627.2,31.0
2021-03-24T15:54:00Z,00000200,01000000,0001.70,0000.81,0000.66,0000.63,-000.01,0000.10,0000.57,0000.32,0000.58,17.4,24.2,,00.0,0627.2,31.0
2021-03-24T15:55:00Z,00000200,01000000,0001.56,0000.95,0000.41,0000.05,0000.27,0000.23,0000.21,0000.84,0000.42,17.4,24.2,,00.0,0627.2,31.0
2021-03-24T15:56:00Z,00000200,01000000,0001.65,0000.91,0000.69,0000.87,-000.01,0000.26,0000.71,0000.43,0000.50,17.3,24.1,,00.0,0627.2,31.0
2021-03-24T15:57:00Z,00000200,41000000,,,,,,,0000.22,0000.04,-000.12,17.4,24.2,,00.0,0627.2,31.0
2021-03-24T15:58:00Z,00000200,61000000,,,,,,,0000.00,0000.23,0000.04,16.9,24.3,,00.0,0626.2,30.9
2021-03-24T15:59:00Z,00000200,21000000,,,,,,,0000.38,0000.04,-000.17,16.9,24.4,,00.0,0626.2,30.9
